Location: Moczy?y
(53.3230°N, 14.4659°E)
Time: 11:04:58
(UTC+00:00)

Daily predictions for brighter satellites

Satellite Brightness Start Highest point End
(mag) Time Altitude Azimuth Time Altitude Azimuth Time Altitude Azimuth
Cosmos 2322 Rocket 3.2 17:46:51 10° SW 17:52:26 53° NW 17:58:03 10° NNE
Cosmos 2237 Rocket 3.3 17:49:19 10° SSE 17:53:23 21° E 17:57:28 10° NE
SL-08 R/B 3.7 17:48:57 10° NNE 17:53:43 47° E 17:58:28 10° S
ISS -1.6 17:54:06 10° SSE 17:55:35 12° SE 17:57:04 10° ESE
CZ-4B R/B 3.1 17:52:40 10° SE 17:56:28 50° ENE 18:00:27 10° N
Cosmos 2219 Rocket 2.3 17:51:47 10° SSW 17:57:28 89° ESE 18:03:11 10° NNE
CSL-04 Rocket 4.2 17:52:48 10° SE 17:57:46 41° ENE 18:02:42 10° N
NOSS 2-1 (E) 4.1 17:58:31 10° NW 18:02:07 56° SW 18:06:58 10° SSE
NOSS 3-4 (A) 4.4 17:56:26 10° NW 18:02:24 42° NNE 18:09:15 10° E
NOSS 3-4 (C) 4.4 17:56:33 10° NW 18:02:30 42° NNE 18:09:21 10° E
Cosmos 1328 Rocket 3.5 17:58:23 10° N 18:02:42 76° ENE 18:07:00 10° SSE
Cosmos 1356 Rocket 3.6 18:01:24 10° N 18:05:31 52° ENE 18:09:36 10° SSE
Cosmos 1674 2.3 18:02:42 10° NNW 18:06:03 88° WSW 18:09:21 10° S
Lacrosse 4 Rocket 3.2 18:02:59 10° NW 18:06:53 33° WSW 18:10:44 10° S
NOSS 2-1 (D) 4.4 18:06:15 10° WNW 18:09:47 46° SW 18:14:29 10° SSE
BREEZE-M DEB (TANK) 3.7 18:08:42 10° WSW 18:11:15 49° S 18:16:38 10° E
SeaSat 1 3.0 18:07:26 10° NNE 18:12:19 64° NW 18:17:11 10° SW
SJ-6B 2.7 18:08:51 10° S 18:12:29 80° W 18:16:05 10° NNW
Iridium 4 Rocket 3.1 18:08:49 10° N 18:13:01 81° W 18:17:10 10° S
Meteor 1-4 Rocket 1.7 18:10:56 10° NNW 18:13:36 89° ENE 18:16:15 10° SSE
Cosmos 2333 Rocket 3.3 18:09:53 10° WSW 18:15:28 49° NW 18:21:05 10° NNE
CARTOSAT-1 3.6 18:11:20 10° SSE 18:15:29 56° ENE 18:19:41 10° N
SL-16 R/B 4.2 18:11:34 10° W 18:16:32 30° NW 18:21:32 10° NNE
Cosmos 1340 3.3 18:13:43 10° SSW 18:16:54 51° WNW 18:20:06 10° N
ATLAS CENTAUR R/B 2.7 18:14:55 10° SSE 18:17:01 15° ESE 18:19:10 10° E
In-Cosmos 22 4.4 18:11:46 10° N 18:17:24 53° ENE 18:22:52 10° SSE
Cosmos 2369 Rocket 3.6 18:14:05 10° NNW 18:18:51 26° NE 18:23:25 11° E
ARGOS Delta rocket 3.9 18:17:26 10° SSE 18:22:27 88° E 18:27:13 10° NNW
Cosmos 1980 4.3 18:17:32 10° S 18:22:36 35° ESE 18:27:42 10° NE
Cosmos 1733 3.7 18:22:58 10° SSE 18:26:03 31° E 18:29:08 10° NNE
Cosmos 1943 Rocket 2.1 18:21:16 10° NNW 18:26:49 79° ENE 18:32:21 10° SE
Cosmos 1891 Rocket 4.5 18:21:01 10° S 18:27:02 66° E 18:33:14 10° NNE
USA 276 3.5 18:26:11 10° WSW 18:28:35 23° SSW 18:30:24 13° SSE
NOSS 0 Rocket 4.1 18:22:43 10° S 18:28:43 51° ESE 18:34:44 10° NE
Nadezhda 4 Rocket 4.1 18:22:56 10° N 18:29:07 59° ENE 18:35:21 10° SSE
Cosmos 1400 Rocket 4.1 18:26:34 10° NNW 18:30:12 41° W 18:33:45 10° SSW
ACS3 Solar Sail 2.1 18:25:26 10° SE 18:31:38 54° ENE 18:37:51 10° N
Cosmos 2298 Rocket 4.4 18:26:35 10° NNW 18:31:43 47° NE 18:35:58 15° SE
Cosmos 2150 Rocket 4.3 18:28:28 10° NNW 18:33:30 48° NE 18:37:30 15° SE
CSL-04 Debris 4.2 18:28:05 10° SSE 18:33:33 76° ENE 18:39:02 10° NNW
Cosmos 2322 3.8 18:28:18 10° SSW 18:33:57 87° WNW 18:39:40 10° NNE
Sich 1 4.1 18:30:57 12° SE 18:34:02 25° E 18:37:34 10° NNE
BlueWalker 3 4.2 18:31:39 10° W 18:34:08 17° SW 18:36:38 10° S
Cosmos 1570 Rocket 4.5 18:32:07 10° S 18:36:56 37° ESE 18:41:44 10° NE
ERS-1 Rocket 4.1 18:34:08 15° ESE 18:37:09 26° ENE 18:41:18 10° N
Cosmos 1726 3.5 18:34:54 10° SW 18:37:26 31° WNW 18:39:59 10° N
Terra 3.2 18:35:11 15° E 18:37:37 22° ENE 18:41:11 10° N
Cosmos 1513 Rocket 4.4 18:36:53 10° S 18:42:56 77° E 18:49:04 10° NNE
Cosmos 1975 4.3 18:43:58 17° E 18:44:01 17° E 18:46:37 10° NE
Cosmos 1315 Rocket 2.8 18:42:12 10° N 18:46:09 60° ENE 18:49:14 16° SSE
Ariane Rocket 4.5 18:44:13 15° E 18:46:39 21° NE 18:50:25 10° N
Cosmos 1805 4.0 18:47:20 22° SE 18:48:33 27° E 18:51:42 10° NNE
Cosmos 1125 Rocket 3.6 18:45:07 10° NNW 18:50:20 80° WSW 18:55:25 11° SSE
Cosmos 1464 Rocket 4.0 18:44:33 10° S 18:50:49 69° E 18:57:11 10° NNE
Cosmos 1842 4.3 18:47:42 10° NNW 18:51:09 43° W 18:54:35 10° SSW
ATLAS 2AS CENTAUR R/B 4.0 18:45:56 10° W 18:52:34 39° NNW 18:58:57 10° NE
SL-16 R/B 3.4 18:53:31 20° ESE 18:53:47 20° E 18:57:43 10° NE
USA 59 Rocket 2.0 18:50:41 10° WNW 18:53:57 25° SW 18:58:05 10° S
Cosmos 1707 3.6 18:51:34 10° NNW 18:54:59 46° W 18:58:23 10° S
Cosmos 1515 Rocket 3.8 18:50:55 10° NNW 18:55:16 71° W 18:59:36 10° S
Cosmos 1536 2.6 18:51:41 10° S 18:55:30 81° E 18:59:21 10° NNE
Okean 3 Rocket 3.5 18:51:31 10° S 18:56:00 85° E 19:00:27 10° NNE
Cosmos 1656 Rocket 4.2 18:51:11 10° NNW 18:56:40 46° NE 18:59:58 22° ESE
COSMOS 2428 3.0 18:52:06 10° SW 18:57:48 74° NW 19:03:34 10° NNE
Okean O Rocket 1.6 18:57:42 13° SSE 19:01:40 88° ENE 19:06:07 10° NNW
Cosmos 1818 4.3 18:57:53 10° WSW 19:03:17 57° NW 19:08:42 10° NE
SL-14 R/B 3.4 19:00:10 10° N 19:03:54 51° ENE 19:05:27 30° SE
Cosmos 2278 Rocket 3.3 19:00:56 10° NW 19:06:16 43° WSW 19:11:35 10° S
Meteor 1-13 Rocket 4.5 19:02:38 10° NNW 19:08:32 75° W 19:14:17 10° S
USA 306 2.2 19:06:40 10° WSW 19:09:58 80° SSE 19:11:32 32° E
CZ-4 R/B 3.2 19:07:31 10° SSW 19:10:54 29° W 19:14:20 10° NNW
PSLV R/B 3.4 19:09:57 28° SSE 19:11:42 81° ENE 19:15:14 10° NNW
Meteor 2-9 Rocket 4.0 19:06:42 10° S 19:12:00 68° E 19:17:27 10° NNE
Cosmos 2034 Rocket 3.9 19:06:56 10° S 19:13:04 69° E 19:19:13 10° NNE
CZ-4B R/B 3.8 19:08:51 10° S 19:14:11 54° W 19:19:28 10° NNW
Cosmos 1500 Rocket 3.5 19:10:44 12° S 19:14:46 63° E 19:19:05 10° NNE
Helios 1A 4.2 19:11:04 10° N 19:14:55 42° WNW 19:18:46 10° SW
Resurs 01 Rocket 2.8 19:12:09 10° S 19:16:21 42° W 19:20:34 10° NNW
Cosmos 2228 Rocket 3.7 19:12:15 10° N 19:16:36 40° ENE 19:17:55 33° ESE
Meteor 1-23 Rocket 4.2 19:11:49 10° NNW 19:17:29 84° ENE 19:21:41 19° SSE
NOSS 3-3 (C) 4.1 19:12:48 10° S 19:17:55 42° ESE 19:23:53 10° NE
MetOp-B 4.1 19:14:53 23° SSE 19:18:14 71° ENE 19:23:36 10° NNW
Meteor 2-10 4.2 19:13:19 10° SSW 19:18:56 89° WNW 19:24:43 10° NNE
Cosmos 1743 Rocket 3.6 19:19:19 27° SSE 19:21:28 55° E 19:25:44 10° NNE
USA 186 4.0 19:19:01 10° SSW 19:21:43 24° W 19:24:28 10° NW
SPOT 3 Rocket 4.3 19:20:19 28° E 19:22:00 35° ENE 19:26:38 10° N
SPOT 5 2.6 19:22:14 28° SSE 19:24:41 82° ENE 19:29:08 10° NNW
Okean-O 2.5 19:23:05 27° SSE 19:25:27 90° ENE 19:29:54 10° NNW
USA 267 3.4 19:21:01 20° E 19:25:40 71° N 19:32:12 10° WNW
Cosmos 2208 Rocket 3.9 19:22:56 10° SSW 19:28:09 68° ESE 19:33:30 10° NNE
Cosmos 1408 Rocket 3.7 19:25:23 10° SSW 19:29:45 76° WNW 19:34:13 10° N
ISS -2.6 19:28:33 10° SW 19:30:43 31° SSW 19:30:43 31° SSW
NOSS 3-3 (A) 3.8 19:26:42 10° SSW 19:32:00 54° SE 19:38:16 10° NE
MOS 1 4.4 19:31:48 21° S 19:35:48 78° WSW 19:41:32 10° NNW
Cosmos 2237 Rocket 2.2 19:31:08 10° SSW 19:36:46 84° WNW 19:42:26 10° NNE
Cosmos 2279 Rocket 4.4 19:35:28 33° SE 19:37:18 41° E 19:43:04 10° NNE
Aureole 3 Rocket 3.6 19:32:23 10° S 19:38:57 89° E 19:43:36 10° NNE
Cosmos 1607 4.3 19:33:54 10° S 19:39:51 41° ESE 19:45:49 10° NE
Cosmos 2219 Rocket 4.3 19:37:23 10° W 19:42:10 27° NW 19:46:57 10° NNE
Cosmos 2297 3.6 19:39:23 10° NNW 19:45:04 78° ENE 19:47:04 42° SE
MOS 1 Rocket 3.5 19:45:38 33° S 19:48:01 83° WSW 19:53:23 10° NNW
Meteor 1-11 Rocket 4.2 19:42:33 10° SSW 19:48:05 60° WNW 19:53:35 10° N
Spot 2 Rocket 3.4 19:50:58 48° SE 19:52:14 68° ENE 19:57:15 10° NNW
Cosmos 158 Rocket 4.1 19:48:42 10° SW 19:53:34 69° WNW 19:58:27 10° NNE
ATLAS CENTAUR R/B 1.0 19:50:13 10° SW 19:53:49 82° NW 19:54:53 45° NE
NOSS 3-4 (A) 3.7 19:47:20 10° NW 19:53:58 89° SW 19:57:12 38° SE
NOSS 3-4 (C) 3.7 19:47:26 10° NW 19:54:05 90° WSW 19:57:18 38° SE
Cosmos 1805 Rocket 3.9 19:52:47 18° SSW 19:55:55 63° WNW 20:00:15 10° N
Aureole 3 4.0 19:59:46 10° N 20:02:58 44° NE 20:02:58 44° NE
Cosmos 2369 Rocket 2.1 19:57:55 10° NNW 20:03:42 86° ENE 20:05:12 52° SE
Cosmos 1633 Rocket 3.6 20:06:10 43° NE 20:06:10 43° NE 20:09:34 10° NNE
Cosmos 1862 Rocket 3.4 20:01:41 10° N 20:06:08 90° E 20:06:32 74° S
Cosmos 1980 4.4 20:00:54 10° SW 20:06:29 55° NW 20:12:05 10° NNE
Cosmos 1441 Rocket 4.0 20:08:11 40° NNE 20:08:11 40° NNE 20:10:34 10° NNE
Cosmos 192 4.2 20:03:27 10° NNW 20:08:21 72° ENE 20:08:51 66° ESE
Cosmos 1943 Rocket 4.1 20:05:49 10° NW 20:09:57 22° WSW 20:14:04 10° SSW
DELTA 2 DEB (DPAF) 4.2 20:06:20 10° N 20:10:29 66° WNW 20:11:47 41° SW
Cosmos 1707 Rocket 3.6 20:06:04 10° NNW 20:10:31 74° W 20:11:05 64° SSW
Sich 1 4.1 20:07:34 13° SW 20:11:12 43° WNW 20:15:22 10° N
Terra 1.9 20:13:52 54° SSW 20:14:46 69° WSW 20:19:30 10° NNW
ERS-1 Rocket 3.3 20:14:03 42° SSW 20:15:34 61° WSW 20:20:35 10° NNW
ACS3 Solar Sail 3.2 20:10:04 10° SSW 20:15:56 37° W 20:21:49 10° NNW
Cosmos 1666 Rocket 3.6 20:18:28 68° NE 20:18:28 68° NE 20:22:21 10° NNE
Cosmos 1703 Rocket 4.3 20:13:44 10° N 20:17:22 41° NE 20:17:22 41° NE
Cosmos 1975 3.4 20:18:58 50° W 20:19:22 53° WNW 20:23:13 10° N
Cosmos 2266 Rocket 4.0 20:17:46 10° N 20:24:01 67° ENE 20:25:07 56° SE
Ariane Rocket 2.9 20:24:21 67° S 20:25:01 80° WSW 20:30:08 10° NNW
Okean 3 4.0 20:28:48 10° NNW 20:32:44 52° W 20:32:44 52° W
SL-16 R/B 2.1 20:35:16 44° SSW 20:37:09 89° NW 20:42:53 10° NNE
Okean O Rocket 4.3 20:36:13 10° WSW 20:38:33 14° W 20:40:54 10° NW
Cosmos 1656 Rocket 4.4 20:34:56 10° NW 20:40:14 43° WSW 20:41:19 39° SW
Cosmos 1634 Rocket 4.5 20:36:32 20° SSW 20:40:54 58° WNW 20:47:10 10° N
ATLAS 2AS CENTAUR R/B 3.8 20:38:34 10° NW 20:45:05 39° NNE 20:49:08 21° ENE
Okean 2 4.3 20:41:42 10° NNW 20:44:49 45° NW 20:44:49 45° NW
SL-08 ROCKET BODY 4.3 20:39:47 10° N 20:46:01 90° NE 20:46:46 71° S
Okean 1-7 3.7 20:45:05 10° NNW 20:48:39 53° NW 20:48:39 53° NW
Cosmos 2263 4.3 20:45:56 10° NW 20:51:36 61° WSW 20:51:55 60° SW
Cosmos 1943 4.3 20:59:59 32° NE 20:59:59 32° NE 21:03:06 10° NE
SPOT 3 Rocket 4.2 21:00:55 44° WSW 21:01:17 45° W 21:06:14 10° NNW
Cosmos 1420 Rocket 4.5 20:57:13 10° NNW 21:01:47 52° NNE 21:01:47 52° NNE
ASTEX 1 4.4 21:06:03 38° NE 21:06:03 38° NE 21:09:28 10° N
RESURS DK-1 4.4 21:03:09 10° NNW 21:05:39 22° NNE 21:05:39 22° NNE
ARIANE 5 R/B 4.0 21:08:15 33° NNE 21:08:15 33° NNE 21:10:57 10° N
NOSS 3-3 (C) 4.4 21:02:58 10° WSW 21:08:37 60° NNW 21:15:26 10° NE
USA 267 3.1 21:08:22 71° S 21:08:45 73° SSW 21:15:18 10° WNW
Cosmos 1697 Rocket 4.3 21:04:45 10° NNW 21:09:22 25° NE 21:10:47 22° ENE
Cosmos 1655 Rocket 3.9 21:03:52 10° N 21:10:18 90° NW 21:10:37 82° S
Cosmos 2344 4.0 21:05:58 10° NW 21:13:41 66° NNE 21:17:17 41° E
Cosmos 724 4.4 21:15:30 52° WSW 21:16:51 70° NW 21:22:42 10° NE
Cosmos 2237 Rocket 4.3 21:17:03 10° W 21:21:39 25° NW 21:26:17 10° NNE
Meteor 2-5 Rocket 3.9 21:18:56 10° NNW 21:24:27 74° NNE 21:24:27 74° NNE
Meteor 1-24 Rocket 3.9 21:19:53 10° NNW 21:25:23 73° NNE 21:25:23 73° NNE
Cosmos 1607 4.3 21:20:31 10° WSW 21:26:57 64° NW 21:33:21 10° NE
ATLAS CENTAUR R/B 3.8 21:28:45 10° WNW 21:35:08 - NNE 21:29:51 16° WNW
SL-24 R/B - RUBIN 2 4.4 21:29:08 10° NW 21:35:12 77° NNW 21:35:12 77° NNW
Cosmos 2369 Rocket 4.0 21:42:53 10° NW 21:46:58 21° W 21:46:58 21° W
Terra 4.4 21:52:34 11° W 21:53:15 11° W 21:54:35 10° WNW
Cosmos 1745 Rocket 4.3 21:58:34 10° N 22:04:06 59° NE 22:04:06 59° NE
ALOS 2 4.4 22:10:19 29° N 22:10:19 29° N 22:12:32 10° NNW
Cosmos 1980 Rocket 3.6 22:05:00 10° NNW 22:09:53 29° NE 22:10:31 28° NE
Meteor 2-10 Rocket 4.4 22:13:48 49° NNW 22:13:48 49° NNW 22:18:00 10° N
USA 215 3.9 22:08:33 10° ENE 22:12:42 42° ENE 22:12:42 42° ENE
SL-16 R/B 4.1 22:17:18 10° W 22:22:02 26° NW 22:26:48 10° NNE
Cosmos 1603 4.4 22:35:39 50° N 22:35:39 50° N 22:40:06 10° NNE
ATLAS 2AS CENTAUR R/B 2.7 22:30:02 10° NW 22:36:31 72° N 22:36:31 72° N
Cosmos 1833 Rocket 4.5 22:43:21 23° ENE 22:43:21 23° ENE 22:45:48 10° NE
Cosmos 1943 4.2 22:41:44 40° NW 22:41:51 40° NW 22:47:11 10° NNE
Cosmos 1553 Rocket 4.4 22:49:37 58° NW 22:49:37 58° NW 22:55:05 10° N
Cosmos 1709 Rocket 4.3 22:47:14 10° N 22:52:39 66° NNW 22:52:39 66° NNW
Cosmos 1697 Rocket 3.5 22:48:30 10° NNW 22:52:28 47° NNW 22:52:28 47° NNW
ATLAS CENTAUR R/B 4.1 23:09:54 15° N 23:10:24 16° N 23:12:54 10° NE
Cosmos 2322 Rocket 4.5 23:06:27 10° NNW 23:10:40 20° NNE 23:14:51 10° ENE
Cosmos 2082 Rocket 4.1 23:25:38 19° E 23:25:38 19° E 23:28:18 10° NE
Cosmos 2369 4.4 23:21:58 10° NNW 23:26:38 51° NNE 23:26:38 51° NNE
Cosmos 2344 4.3 23:20:16 10° NW 23:27:14 48° WSW 23:27:14 48° WSW
Cosmos 2333 Rocket 4.4 23:29:58 10° NNW 23:34:28 23° NNE 23:38:56 10° E
SL-16 R/B 3.7 23:30:08 10° NNW 23:35:12 32° NE 23:37:43 23° E
Resurs 1-4 Rocket 4.3 23:41:31 10° NE 23:44:33 15° E 23:44:45 15° E
CZ-2C R/B 3.7 23:46:19 38° ENE 23:46:19 38° ENE 23:50:51 10° N
